{"data":{"norad_id":63778,"intl_designator":"2025-091D","name":"STARLINK-33938","alt_names":[],"object_type":"PAYLOAD","status":"ACTIVE","operator":null,"country":"US","launch_date":"2025-05-02","launch_site_code":"AFETR","launch_vehicle":null,"mission":null,"orbit_class":"UNKNOWN","rcs_meters":null,"size_class":null,"mass_kg":null,"dimensions":null,"purposes":["comms"],"wikipedia_slug":null,"has_3d_model":false,"image_url":null,"decayed_at":null,"tle_current":{"epoch":"2026-05-24T22:40:41.881152Z","epoch_age_seconds":83817,"freshness":"FRESH","line1":"1 63778U 25091D   26144.94492918  .00023461  00000+0  85898-3 0  9997","line2":"2 63778  43.0041 341.9531 0002226 279.1853  80.8746 15.27593495 60658","mean_motion":15.27593495,"eccentricity":0.0002226,"inclination_deg":43.0041,"raan_deg":341.9531,"arg_perigee_deg":279.1853,"mean_anomaly_deg":80.8746,"bstar":0.00085898,"rev_number":6065,"period_min":94.265915946441,"perigee_km":481.48139642231,"apogee_km":484.53597848236,"semimajor_km":6861.1456874523,"source":"CELESTRAK","updated_at":"2026-05-25T13:38:20.132932Z"}}}